Startpagina
METAR-TAF:

METAR-TAF

Vliegvelden :

Vlissingen, Nederland

breedte: 51-27N, lengte: 3-36E, hoogte: 10 m

Actueel weer

Dit bericht is 33 minuten geleden gemaakt, om 09:55 UTC
Wind 13 kt uit het zuiden
Temperatuur 15°C
Vochtigheid 77%
Druk 1019 hPa
Zicht 10 km of meer

METAR: EHFS 210955Z AUTO 18013KT 9999 NSC 15/11 Q1019

Tijdstip: 12:28 (10:28 UTC)


TAF: ontbreekt

Waarnemingen en weersverwachtingen van meer dan 4000 vliegvelden (METAR en TAF).

De beschikbare stations zijn de gele en rode punten op de kaart.

Ga met uw muis naar het station om de naam te zien.

Klik dan om waarnemingen en weersverwachtingen te zien.

kaart wijzigen: klik op de groene knoppen met een zwart kruis om in te zoomen, op de groene knop met een streepje om uit te zoomen of op de groene pijlen voor aangrenzende kaarten.


METAR-TAF: